星链-36092(STARLINK-36092)

导读

STARLINK-36092是美国星链计划中的一颗低轨互联网卫星,于2025年12月2日发射。星链计划旨在构建全球覆盖的卫星互联网星座,为偏远地区、海上及航空场景等提供宽带网络服务,该卫星入轨后将扩充星链星座在轨卫星规模,进一步提升全球网络覆盖能力与服务稳定性。

基本信息
目录编号:
66869
目录名称:
STARLINK-36092
国际标识:
2025-281X
轨道中心:
EARTH
卫星名称:
星链-36092
卫星全名:
星链-36092(STARLINK-36092)
卫星状态:
在轨 (已飞行193 天)
发射日期:
2025-12-02 UTC
国别 :
美国 (US)
星等 :
--
轨道信息
数据来源 国际轨道数据
星历时间: 2026-06-12T15:23:25+0800
1天前
查看轨道信息
半长轴: 6861.126km
偏心率: 0.0001941
轨道倾角: 42.986°
近地点辐角 309.064°
升交点赤经 169.329°
平近点角 51.004°
近地点: 481.657km
远地点: 484.321km
周期: 94.266分钟
每日圈数: 15.276001
详细信息
固有亮度:
5
最大亮度:
2.5
卫星平台:
Starlink V1.0
覆盖范围:
全球
运营商:
太空探索技术公司
运营商所在国:
美国
制造商(研发单位):
太空探索技术公司
制造商所在国:
美国
使用方式:
暂无
卫星简介
Starlink 计划是 SpaceX 推出的全球卫星互联网项目,通过发射低轨道卫星,为全球尤其是偏远地区提供高速、低延迟的互联网服务。自 2019 年起,Starlink 已部署数千颗卫星,旨在缩小全球数字鸿沟,推动互联网普及。该项目还为军事、航空等行业提供通信支持,带来广泛经济效益。
2D轨道图
3D轨道图
轨道高度分析图
轨道倾角分析图
轨道综合分析图
查看轨道综合分析图